User: anonymous   Login
Location: Unspecified
(0.0000°N, 0.0000°E)
Time: 22:08:47
(UTC+00:00)
Language:

DMSP F15 (USA 147) - Orbit

View from above orbital plane
View from above orbital plane
View from above satellite
View from above satellite

Ground track
Ground track

The orbit data is extracted from the following two-line orbital elements,

1 25991U 99067A   17267.14729143 0.00000000  00000-0  00000-0 0    04
2 25991  98.8283 223.7755 0010996  50.4091 309.5907 14.16585665    01
Epoch (UTC): 24 September 2017 03:32:05
Eccentricity: 0.0010996
inclination: 98.8283°
perigee height: 829 km
apogee height: 845 km
right ascension of ascending node: 223.7755°
argument of perigee: 50.4091°
revolutions per day: 14.16585665
mean anomaly at epoch: 309.5907°
orbit number at epoch: 0

The dashed part of the orbit path shows where the satellite is in the earth's shadow,  

DLR